Terminal Aerodrome Forecast
Issued by NWS Anchorage, AK

Home | Current Version | Previous Version | Text Only | Print | Product List | Glossary On
Versions: 1 2 3 4 5 6 7 8 9 10 11 12 13 14 15 16 17 18 19 20 21 22
000
FTAK31 PANC 160532
TAFANC
TAF
PANC 160532Z 1606/1712 VRB05KT P6SM -SHRA FEW040 OVC060
     FM161200 VRB04KT P6SM FEW050 BKN080
     FM162000 35005KT P6SM SCT080 BKN150=

USA.gov is the U.S. government's official web portal to all federal, state and local government web resources and services.